Location: Allen Generating Plant
(35.0740°N, 90.1490°W)
Time: 17:16:51
(UTC+00:00)

A-11 Canister half - Pass Details

Date: 16 December 2025
Orbit: 1526 x 1682 km, 47.3° (Epoch: 12 January)

Event Time Altitude Azimuth Distance (km) Brightness Sun altitude
Rises 12:13:11 0° 170° (S) 4,816 12.1 -9.9°
Reaches altitude 10° 12:18:40 10° 146° (SE) 3,869 12.1 -8.9°
Maximum altitude 12:22:44 13° 121° (ESE) 3,637 12.5 -8.1°
Drops below altitude 10° 12:26:50 10° 96° (E) 3,916 12.6 -7.4°
Sets 12:32:24 0° 72° (ENE) 4,926 12.5 -6.3°
